Temp
29 29 30 29 29 30 31 29 31 31 31 30 28 28 27 27 27 27 26 26 26 26 27 26 26 27 27 26 26 26 26 25 25 24 23 22 23 23 22 22 21 21 22 21
29 28 30 30 29 30 30 31 30 31 32 30 28 28 28 27 27 27 27 27 27 26 26 26 26 26 27 27 27 26 26 26 25 25 24 23 23 23 23 23 23 22 20 21
28 30 31 32 31 32 30 32 31 31 30 30 29 28 26 28 27 28 27 27 26 25 24 24 25 25 26 26 26 27 27 26 25 25 24 23 22 22 23 23 23 24 23 24
28 30 32 32 32 31 30 31 32 32 29 28 30 28 26 26 27 28 27 26 24 24 24 24 23 23 25 26 26 26 27 25 24 23 24 23 22 22 24 24 24 24 24 23
29 31 32 32 32 31 31 32 32 31 28 28 30 28 27 26 25 27 26 26 23 23 23 24 27 23 23 25 26 26 25 25 25 23 23 23 23 24 24 24 24 24 24 23
29 30 32 31 33 33 31 32 29 26 26 28 28 28 27 25 26 26 27 26 23 23 23 23 23 23 22 23 24 23 22 21 21 20 20 23 24 24 23 23 23 23 23 23
28 30 31 32 33 31 29 27 26 29 27 27 25 27 26 25 24 24 26 24 23 23 21 20 21 21 20 22 23 24 24 22 21 20 20 20 22 22 22 22 21 22 21 21
26 27 30 31 31 31 30 28 26 30 27 27 27 29 27 25 23 22 23 22 21 21 20 20 21 21 19 20 23 22 24 24 23 22 20 19 21 21 21 20 20 19 20 20
25 27 29 31 32 31 30 29 28 24 23 26 24 26 25 25 24 23 22 22 22 22 22 21 22 21 20 20 20 24 28 24 22 23 18 17 19 19 19 19 19 19 19 19
27 28 29 31 32 32 31 28 28 24 28 29 25 26 25 24 24 23 22 22 22 22 22 21 21 20 20 20 21 25 24 23 21 18 18 18 18 18 18 18 18 18 18 18
24 25 28 32 30 30 29 28 24 23 24 25 25 25 24 23 23 22 22 22 22 21 21 20 19 19 18 19 21 21 19 19 19 18 19 17 17 17 17 17 17 16 16 16
25 23 25 27 29 29 30 29 26 26 27 21 24 27 25 24 22 22 22 21 20 20 19 19 18 18 18 18 17 18 19 19 19 18 18 17 17 17 16 15 15 15 15 15
25 24 25 26 27 27 29 27 25 22 21 23 26 27 22 21 21 21 21 20 19 19 19 18 17 17 17 17 17 17 17 18 19 18 16 16 16 15 14 14 14 14 14 14
27 21 26 28 26 28 30 29 25 26 25 23 24 27 23 21 22 21 20 20 19 18 18 17 17 16 16 16 17 17 17 17 16 15 15 15 14 14 14 14 14 13 13 13
25 26 23 25 27 28 30 30 27 27 28 30 28 25 23 22 22 21 20 20 19 19 18 17 17 16 16 16 16 16 15 15 16 16 15 14 14 14 14 13 13 13 13 12
22 26 24 28 27 27 29 30 27 27 26 26 23 26 23 20 20 20 20 20 20 19 19 17 17 16 15 15 15 15 15 15 15 14 13 13 14 14 13 13 13 12 12 12
24 21 23 26 27 27 28 28 28 27 27 26 27 27 22 21 22 21 20 20 20 20 19 18 17 16 15 15 15 15 15 15 14 13 13 13 13 13 13 13 12 12 12 12
21 21 21 23 26 27 27 28 29 29 28 25 23 22 23 23 22 20 21 21 20 20 18 17 15 14 15 15 15 15 14 14 13 13 13 13 13 13 12 12 12 12 12 12
22 20 21 23 23 26 29 26 27 30 29 27 24 23 22 21 21 20 21 20 20 19 17 16 15 15 14 15 15 14 13 13 13 13 13 13 13 12 12 12 12 12 12 12
21 20 24 20 26 26 26 28 27 28 28 26 24 24 23 23 23 20 20 19 18 17 16 15 14 14 15 14 13 12 12 13 13 13 13 13 13 13 12 12 12 12 12 12
23 23 24 21 25 25 25 27 28 28 27 25 25 24 23 23 22 20 18 17 17 16 15 15 14 14 14 14 13 13 13 13 13 14 14 13 13 13 13 13 13 13 13 13
25 22 22 21 24 30 25 27 28 27 25 26 25 24 23 18 19 19 17 16 15 15 14 15 14 14 14 14 14 13 13 13 14 14 14 14 14 13 13 13 13 13 13 13
23 22 22 23 23 23 23 26 27 24 26 26 24 23 20 19 18 17 16 15 15 15 14 14 14 13 13 14 15 14 14 14 14 14 14 14 14 14 14 14 14 14 13 13
21 18 20 23 24 23 22 25 25 25 26 26 24 21 20 18 17 16 15 15 14 14 13 14 14 13 13 14 14 14 14 14 15 15 15 14 14 14 14 14 14 14 14 14
21 19 20 20 21 24 25 24 23 22 23 22 22 21 19 18 17 16 15 14 14 13 14 14 14 13 14 14 14 14 14 14 15 15 15 15 15 14 15 15 15 15 15 15
18 20 21 22 21 21 22 22 22 23 22 21 20 18 18 18 16 15 14 14 13 13 14 14 14 14 14 14 14 14 14 14 15 15 15 15 15 15 15 15 16 16 15 15
Height
746 764 776 770 769 770 775 786 784 768 754 764 773 779 775 771 773 773 773 776 775 774 772 779 782 785 786 787 789 790 791 794 795 796 797 800 802 805 809 812 812 810 810 809
761 774 756 753 763 768 775 777 781 763 750 760 773 778 771 769 766 767 768 771 772 775 778 783 783 785 785 785 785 786 788 790 792 794 796 800 802 805 809 809 807 808 792 807
770 760 747 752 762 767 772 773 774 776 764 763 773 787 782 768 766 762 765 764 771 777 782 786 788 787 785 785 784 784 785 788 791 794 796 797 800 802 804 802 803 802 801 800
761 747 749 752 762 762 780 759 759 766 783 802 769 813 789 777 771 765 766 766 774 772 771 778 777 784 784 781 781 782 785 790 795 797 794 796 799 801 799 799 799 798 797 797
761 752 751 757 756 754 769 748 758 761 782 788 785 799 788 779 782 769 763 765 769 768 768 763 755 773 783 783 780 786 789 790 791 795 796 796 795 797 798 798 797 796 795 794
753 739 742 748 742 743 744 754 768 781 791 811 794 796 798 789 777 768 763 761 764 762 758 767 778 780 783 783 782 783 787 790 793 798 799 794 793 794 797 795 794 795 795 793
759 753 741 737 751 746 758 783 817 810 817 820 800 802 792 775 768 767 759 760 762 763 772 782 785 784 786 783 779 780 783 785 791 795 781 790 794 793 795 793 793 792 791 790
786 792 750 737 748 759 763 778 814 818 827 814 792 799 783 768 765 763 756 760 764 769 777 784 783 779 784 783 776 780 776 783 789 789 797 803 796 793 794 795 795 793 792 790
787 781 744 735 732 742 763 780 769 810 816 818 816 792 768 761 765 764 766 765 769 771 776 781 778 780 786 781 786 774 770 777 787 784 808 807 799 796 796 797 797 796 794 791
759 779 749 738 732 736 747 753 787 802 816 819 817 805 795 774 767 767 769 770 770 770 776 778 780 780 782 783 781 772 773 773 784 798 804 805 802 799 799 799 798 798 795 793
754 768 766 741 753 760 762 770 785 793 804 823 830 810 765 764 764 769 768 771 772 772 772 775 776 778 783 784 781 779 784 784 790 797 799 806 804 801 801 800 799 798 796 794
744 767 782 767 741 738 742 757 768 797 799 814 810 793 751 754 761 763 771 774 775 775 776 778 780 782 786 786 784 787 791 792 795 798 800 805 802 802 803 804 803 799 798 794
741 769 786 778 760 748 750 753 759 775 787 800 803 788 758 761 765 765 770 774 778 777 781 780 783 785 786 789 790 792 796 796 794 799 805 805 805 809 810 808 802 800 797 795
719 765 762 773 770 748 750 747 756 758 785 792 787 764 766 766 768 769 771 772 775 780 782 782 784 786 786 791 794 797 799 802 807 810 812 812 814 813 810 804 802 798 799 797
726 751 756 748 743 742 739 739 751 757 751 757 753 763 752 754 758 765 771 775 779 783 785 786 786 788 790 795 800 802 805 806 807 808 809 811 813 809 806 804 803 801 800 797
733 744 746 742 739 741 741 734 744 744 750 750 759 751 741 751 757 765 770 774 778 783 787 788 789 790 794 799 803 805 805 806 808 812 813 813 809 806 806 806 804 804 800 793
735 751 756 761 739 744 758 740 735 735 736 741 752 735 742 751 754 759 765 770 775 778 783 788 790 794 797 802 806 807 809 811 814 815 815 815 810 810 810 808 805 802 799 800
740 748 758 765 749 772 736 718 717 725 725 732 734 736 734 738 746 755 758 764 771 775 781 787 791 797 802 806 808 808 812 814 815 817 817 815 812 810 808 807 809 807 806 805
722 741 761 766 772 749 726 727 724 723 728 720 733 734 741 745 750 761 758 763 768 773 780 786 792 798 803 805 808 811 815 818 819 818 816 814 813 812 811 812 812 811 810 808
726 732 740 766 757 766 732 706 700 706 743 716 722 730 737 742 762 760 756 762 769 776 781 788 796 801 803 809 811 814 818 819 818 817 817 815 814 813 813 813 813 812 811 809
740 739 748 757 749 740 711 702 702 744 737 707 713 722 732 740 740 741 754 765 770 776 783 790 796 800 804 809 813 817 818 816 815 815 816 815 814 813 813 813 812 811 810 809
731 746 752 755 750 733 699 706 722 698 694 694 709 718 727 736 741 745 755 764 770 777 784 788 794 800 805 809 812 812 812 813 814 814 814 813 813 813 813 813 812 811 810 808
739 724 733 729 724 696 688 684 680 682 684 693 704 714 723 734 744 750 759 765 770 776 784 790 795 801 806 808 808 807 809 811 811 812 813 813 813 813 812 812 811 809 808 805
723 722 727 716 697 696 691 680 680 680 679 684 693 710 723 732 744 752 759 767 773 780 785 791 797 802 805 805 806 807 808 809 810 811 813 814 813 812 812 811 810 808 806 804
715 715 718 718 702 690 683 681 683 685 685 693 703 711 720 731 746 753 759 767 773 778 787 792 797 800 802 805 808 809 809 809 811 811 812 812 812 812 811 810 808 806 804 802
711 708 716 710 691 691 684 680 680 684 691 694 702 720 729 730 739 750 760 767 774 782 789 794 796 799 804 807 809 809 809 809 810 811 812 813 813 812 811 809 807 806 804 802
Wind_Speed
3 4 5 6 5 5 4 5 8 6 7 9 11 6 14 14 13 13 12 10 10 13 13 15 21 22 21 23 23 26 27 27 27 26 25 24 25 26 23 22 22 22 25 24
4 5 4 4 6 5 6 5 3 4 5 10 7 4 11 15 19 15 13 12 12 6 2 1 12 16 22 24 24 25 28 28 27 26 25 19 14 14 17 15 13 14 22 23
6 5 5 4 3 3 3 3 0 3 5 5 5 3 5 8 8 10 7 7 4 4 6 7 15 6 14 21 24 26 25 27 26 23 22 19 16 15 19 20 19 18 13 12
5 5 5 1 1 4 5 5 4 4 3 3 3 4 5 5 11 11 8 7 8 13 11 11 10 7 7 18 21 24 25 21 22 24 22 21 19 17 24 20 22 15 12 12
7 5 3 3 4 5 6 2 4 3 5 5 2 3 5 1 8 15 10 8 10 12 12 10 14 10 1 7 12 8 12 15 18 22 20 19 18 18 21 16 10 12 10 11
6 2 1 6 3 5 6 4 6 4 3 2 3 3 5 3 4 3 4 8 13 14 11 5 17 11 8 12 10 18 15 15 12 18 23 22 16 13 12 9 11 12 11 11
4 3 3 3 2 4 6 6 4 4 3 5 3 3 7 7 5 6 10 10 9 6 6 9 5 9 11 15 19 19 21 23 10 18 40 26 8 5 5 9 10 11 13 16
5 7 6 4 7 6 5 7 5 2 2 4 1 3 5 1 3 4 6 8 6 5 7 6 3 8 9 13 17 18 12 19 11 5 24 15 5 10 12 13 13 15 14 15
5 5 5 3 4 7 3 3 4 7 3 3 3 5 8 2 2 3 6 8 7 6 8 8 7 6 10 8 12 14 8 17 22 21 5 11 14 15 14 13 13 14 13 14
6 1 3 5 3 2 3 5 3 3 4 3 4 5 6 6 7 4 4 4 4 2 6 5 6 11 10 7 4 9 10 21 16 12 11 13 15 15 13 13 14 14 14 13
6 4 5 2 3 7 1 1 6 5 4 5 3 6 6 10 7 7 3 5 5 3 5 5 8 11 11 13 9 12 19 21 17 13 13 11 13 14 13 14 15 15 14 15
8 6 5 11 5 3 3 7 6 5 4 2 2 6 3 4 7 6 6 6 6 7 6 7 8 12 11 12 16 16 14 17 15 13 12 11 14 15 15 13 13 15 16 16
8 1 1 9 6 2 4 5 4 5 4 7 6 6 3 5 6 6 8 8 8 8 7 7 7 12 17 19 24 24 20 18 16 11 8 11 13 10 9 11 14 15 17 18
10 4 7 9 8 4 4 5 5 5 4 6 6 4 6 6 7 6 7 8 9 8 7 6 6 11 18 20 21 21 19 16 13 10 8 9 8 8 11 14 15 16 16 17
5 9 8 7 7 5 5 4 7 8 2 6 8 11 9 15 12 9 8 6 10 10 9 8 7 9 16 19 17 17 16 13 10 10 10 9 7 10 14 15 15 16 16 17
3 3 7 5 5 7 3 2 7 5 4 3 7 4 3 9 8 9 10 10 10 10 9 9 9 14 15 18 18 15 13 11 8 7 7 7 9 12 13 13 15 14 17 19
4 5 4 7 4 6 1 8 6 4 5 6 6 8 10 8 12 14 13 13 12 10 9 11 11 15 17 20 18 15 11 8 7 7 7 7 9 9 10 12 15 18 21 21
6 5 3 3 3 3 7 1 2 3 3 6 3 7 8 11 5 7 8 11 12 11 11 10 16 18 23 21 16 13 10 9 9 9 6 7 8 10 12 15 16 18 19 20
1 5 3 5 4 4 2 4 7 8 7 5 8 11 10 12 7 4 7 6 9 10 14 18 22 26 26 21 16 15 13 14 12 10 10 10 10 10 10 10 12 15 16 19
6 6 4 3 5 7 9 4 6 4 2 8 11 16 17 9 4 4 9 8 11 17 23 24 26 28 25 21 19 18 17 13 10 7 6 7 8 9 10 7 10 11 13 15
3 2 5 3 4 5 7 3 3 7 8 12 15 16 14 6 3 9 14 9 18 22 24 28 27 25 22 19 17 17 15 11 7 6 5 5 5 7 7 7 8 10 11 13
6 6 4 2 4 2 7 4 9 7 3 14 12 9 10 8 12 16 15 15 18 21 23 26 25 24 20 17 16 15 13 9 7 6 7 6 5 6 7 8 8 10 12 14
4 5 3 7 6 3 6 6 2 4 13 10 15 12 12 15 9 15 15 15 17 23 22 26 26 23 17 14 12 15 10 7 6 5 5 5 4 5 7 9 12 15 15 16
5 4 3 3 3 5 6 1 4 3 8 16 15 19 14 16 15 15 14 14 14 20 21 25 24 20 15 12 10 10 8 6 4 4 2 4 7 9 9 10 11 14 16 18
3 3 4 6 7 2 3 4 4 7 13 16 14 16 20 20 16 14 15 13 18 21 23 24 22 20 14 10 9 8 7 5 3 0 3 5 8 9 11 9 9 10 12 11
5 6 5 5 4 2 5 5 10 16 16 19 23 14 10 17 19 17 13 18 21 21 23 21 18 16 13 9 9 8 6 4 1 1 2 4 6 8 8 9 12 10 11 12
Wind_Direction
20 86 215 184 155 160 177 210 236 251 217 175 200 173 186 190 209 215 212 222 219 217 228 226 228 226 230 230 234 231 232 236 234 235 243 248 255 263 276 296 297 277 285 282
31 212 183 147 156 166 192 231 265 283 298 178 154 194 195 191 212 215 206 209 217 231 117 30 233 235 233 233 230 232 234 237 236 241 243 250 263 270 284 289 290 292 286 284
176 216 162 142 121 35 219 251 213 272 0 41 108 337 195 218 212 222 217 214 169 141 106 43 5 314 252 249 243 239 243 244 243 242 244 254 260 265 275 282 292 308 306 274
231 231 211 208 122 136 310 209 255 144 124 219 180 257 240 230 217 231 218 187 124 126 137 106 91 355 256 244 251 250 246 251 257 259 244 249 257 259 276 286 305 324 328 327
235 175 136 142 203 168 240 291 278 323 145 101 272 88 274 120 227 224 218 156 145 146 164 162 151 202 343 263 244 265 266 269 262 267 265 259 252 268 281 312 315 338 350 1
207 320 160 176 180 185 254 23 34 54 95 57 303 124 286 207 226 275 186 173 167 173 184 98 66 98 71 41 78 71 59 12 328 17 318 275 265 270 300 350 4 1 0 10
355 236 251 157 13 350 76 59 339 354 17 212 298 81 244 269 299 243 213 170 173 166 87 53 96 116 100 109 110 95 74 58 14 1 350 310 276 328 13 25 32 30 35 27
156 319 180 170 169 184 182 156 152 254 238 280 319 230 254 240 331 344 106 127 129 136 96 100 154 135 147 156 154 124 107 25 60 118 321 341 85 75 66 59 52 51 49 43
131 264 280 224 134 145 170 176 183 107 15 73 289 293 300 288 61 72 108 142 143 161 127 138 177 152 166 194 221 177 140 133 72 85 332 39 67 66 63 55 48 41 34 32
197 335 238 269 113 40 156 155 76 13 138 221 286 274 241 256 235 160 180 118 127 137 129 148 138 157 160 203 147 99 115 116 88 94 68 44 48 50 45 34 34 27 23 15
137 121 280 94 169 193 60 34 54 116 118 159 173 260 217 214 190 189 187 101 122 85 39 105 108 103 122 123 115 106 108 106 95 86 67 42 42 42 37 33 31 27 19 17
196 160 194 220 237 176 154 210 152 123 228 142 157 267 308 192 141 164 116 117 83 77 77 94 93 102 109 101 94 118 120 106 94 77 58 42 33 26 24 32 35 32 28 24
177 228 249 324 348 77 197 188 142 113 88 190 146 257 4 101 140 133 136 122 117 113 117 106 102 101 97 93 96 106 103 94 73 63 55 39 36 38 42 42 40 34 32 29
126 138 169 219 209 177 201 180 167 143 136 169 218 217 235 191 172 145 131 131 124 125 133 119 100 95 89 95 105 107 103 105 111 110 92 72 66 57 47 39 36 33 28 24
122 192 172 226 209 187 243 193 178 208 190 162 220 192 213 190 179 153 144 129 126 127 135 131 120 106 102 107 115 115 114 107 82 56 50 53 52 52 39 32 28 26 22 19
5 229 167 235 180 187 238 202 182 175 154 264 125 253 168 126 118 134 151 158 148 154 153 137 128 119 120 125 126 116 101 86 79 76 73 53 49 48 31 25 26 25 25 24
134 131 114 239 180 119 331 218 198 168 177 147 169 215 153 142 159 170 163 166 168 164 148 144 138 135 132 139 140 122 110 102 104 91 73 66 58 51 48 36 38 44 43 42
141 122 106 168 106 176 239 13 123 136 152 170 118 146 159 157 113 123 159 162 164 156 148 139 132 131 143 144 131 122 125 122 113 111 91 82 82 67 51 54 46 40 40 37
138 123 110 139 171 262 310 205 162 168 232 178 130 129 113 117 85 69 155 153 158 146 144 141 143 148 148 140 136 138 143 143 137 121 95 75 69 62 52 45 35 35 41 40
85 76 114 149 146 186 228 220 165 104 273 174 140 148 144 144 130 214 154 123 121 131 136 136 142 144 141 146 147 148 155 151 126 104 96 71 58 60 50 46 32 30 29 30
64 50 178 183 177 279 246 183 157 127 230 160 152 160 156 162 180 139 124 111 130 134 131 136 140 141 141 144 148 150 145 123 105 91 91 68 59 47 38 28 18 9 7 8
180 156 190 119 92 180 151 73 173 198 149 145 151 159 135 109 121 125 125 128 127 127 130 136 137 144 152 154 148 136 120 110 99 91 82 65 52 30 5 355 353 346 341 340
262 176 194 187 208 279 223 193 223 177 145 158 149 146 140 129 124 133 134 134 136 133 134 143 142 147 154 147 131 124 123 113 98 102 77 46 14 349 346 342 337 334 333 329
223 170 188 9 293 264 279 330 162 239 140 150 145 140 145 131 133 132 129 127 124 131 137 147 148 149 148 138 129 137 137 128 115 101 43 332 327 328 318 313 317 318 323 326
236 123 177 263 274 272 215 242 140 97 108 111 120 142 138 131 132 135 129 134 137 136 146 152 156 150 138 144 149 149 147 151 151 77 334 338 337 336 337 329 319 319 335 335
190 184 170 232 231 159 269 163 147 140 142 137 125 116 124 137 136 136 133 135 137 139 150 149 145 143 151 156 166 163 163 171 216 0 43 3 355 349 346 339 332 333 335 336